[[{"header":{"parameterUnit":"m.s-1","parameterCategory":1,"la1":30.2991,"la2":30.254,"lo1":-89.0895,"lo2":-89.0444,"dy":0.0017,"dx":0.0017,"nx":28,"ny":28,"refTime":"2024-05-20T21:00:00:Z","depth":0,"parameterNumber":2,"parameterNumberName":"U-component_of_WINDS"},"data":[0,0,0,0,0,0,0,0,0,0,0,0,0,0,0,0,0,0,0,0,0,0,0,0,0,0,0,0,0,0,0,0,0,0,0,0,0,0,0,0,0,0,0,0,0,0,0,0,0,0,0,0,0,0,0,0,0,0,-2.2897,-2.2898,0,-2.2981,-2.2982,-2.2983,-2.2987,-2.2986,-2.2985,-2.2984,-2.3071,-2.3074,-2.3077,0,0,0,0,0,0,0,0,0,0,0,0,0,-2.2743,-2.2745,-2.2897,-2.2898,-2.2899,-2.2981,-2.2982,-2.2983,-2.2987,-2.2986,-2.2985,-2.2984,-2.3069,-2.3073,-2.3077,0,0,0,0,0,0,0,0,0,0,0,0,0,-2.2816,-2.2746,-2.2897,-2.2911,-2.2913,-2.298,-2.2982,-2.2983,-2.2988,-2.2986,-2.2985,-2.2983,-2.3068,-2.3073,-2.3078,-2.3136,0,0,-2.3092,-2.3094,0,0,0,0,0,0,0,0,-2.2812,-2.2822,-2.2908,-2.291,-2.2913,-2.2972,-2.2959,-2.3035,-2.2988,-2.2959,-2.2984,-2.2983,-2.3039,-2.3046,-2.3065,-2.314,-2.3144,-2.3093,-2.3096,-2.3098,-2.3099,0,0,0,0,0,0,0,-2.2807,-2.2818,-2.293,-2.2909,-2.2912,-2.2914,-2.2923,-2.2973,-2.3006,-2.2962,-2.2962,-2.2972,-2.304,-2.306,-2.3067,-2.3145,-2.3093,-2.3097,-2.31,-2.3102,-2.3273,-2.3274,0,0,0,0,0,0,-2.2799,-2.2814,-2.2928,-2.2933,-2.2858,-2.2918,-2.2928,-2.2955,-2.3006,-2.3012,-2.2973,-2.2972,-2.3053,-2.3061,-2.307,-2.3142,-2.3098,-2.3102,-2.3105,-2.3271,-2.3273,-2.3275,0,0,0,0,0,0,-2.2796,-2.2809,-2.2924,-2.2874,-2.2888,-2.2922,-2.2952,-2.2957,-2.2977,-2.3014,-2.302,-2.2988,-2.3052,-2.3063,-2.312,-2.3145,-2.3104,-2.3109,-2.3269,-2.3272,-2.3274,-2.3286,0,0,0,0,0,0,-2.2791,-2.2808,-2.283,-2.2874,-2.2891,-2.2972,-2.2954,-2.296,-2.2985,-2.2985,-2.303,-2.3036,-2.3052,-2.3113,-2.3124,-2.3151,-2.3112,-2.3267,-2.327,-2.3273,-2.3283,-2.3288,-2.3293,0,0,0,0,0,-2.2786,-2.283,-2.2831,-2.2845,-2.292,-2.2974,-2.2983,-2.3001,-2.2987,-2.301,-2.3034,-2.3034,-2.314,-2.3118,-2.3132,-2.316,-2.3266,-2.3269,-2.3273,-2.3281,-2.3287,-2.3292,0,0,0,0,0,0,-2.2788,-2.2836,-2.2838,-2.2898,-2.2932,-2.2974,-2.3003,-2.3007,-2.3045,-2.3043,-2.3063,-2.3073,-2.3129,-2.315,-2.3125,-2.3219,-2.3202,-2.3208,-2.3203,-2.3209,-2.3214,-2.3207,-2.3116,0,0,0,0,0,-2.2796,-2.2836,-2.2875,-2.2925,-2.2941,-2.297,-2.2994,-2.3004,-2.304,-2.3054,-2.3082,-2.3117,-2.3159,-2.3185,-2.3225,-2.3287,-2.3296,-2.3313,-2.3317,-2.3321,-2.3326,-2.336,-2.3368,-2.3287,-2.3287,-2.3287,0,0,-2.2812,-2.2843,-2.2867,-2.2926,-2.2953,-2.2994,-2.2982,-2.3025,-2.3056,-2.3061,-2.3116,-2.3138,-2.3178,-2.3237,-2.3265,-2.3257,-2.3351,-2.3326,-2.3328,-2.3332,-2.3365,-2.3372,-2.3379,-2.329,-2.329,-2.3289,0,0,-2.2862,-2.289,-2.2933,-2.2961,-2.3003,-2.3021,-2.3032,-2.3074,-2.3089,-2.3144,-2.3149,-2.3186,-2.3257,-2.3285,-2.3309,-2.337,-2.3372,-2.3383,-2.3407,-2.344,-2.3446,-2.3452,-2.3473,-2.3481,-2.3388,-2.3388,-2.3388,0,-2.2877,-2.2938,-2.2956,-2.2999,-2.3025,-2.3032,-2.3076,-2.3103,-2.3155,-2.3173,-2.3164,-2.3252,-2.328,-2.3346,-2.3361,-2.338,-2.3393,-2.3377,-2.3444,-2.345,-2.3455,-2.3476,-2.3484,-2.3389,-2.3389,-2.3389,-2.3389,0,-2.2954,-2.2996,-2.3027,-2.3077,-2.3106,-2.315,-2.3175,-2.3203,-2.3211,-2.323,-2.3287,-2.332,-2.3367,-2.3384,-2.3392,-2.3451,-2.3445,-2.3439,-2.3422,-2.3464,-2.3483,-2.3491,-2.3391,-2.339,-2.339,-2.339,0,0,-2.3007,-2.3067,-2.3077,-2.31,-2.3147,-2.318,-2.3225,-2.327,-2.3293,-2.333,-2.3367,-2.3427,-2.3423,-2.345,-2.3462,-2.3491,-2.3536,-2.3482,-2.3483,-2.349,-2.3603,-2.3606,-2.3615,-2.3538,-2.354,-2.3541,-2.3599,0,-2.3061,-2.314,-2.3157,-2.3225,-2.3264,-2.3272,-2.3311,-2.3344,-2.3363,-2.34,-2.3422,-2.3464,-2.3455,-2.3471,-2.35,-2.3525,-2.3559,-2.3521,-2.3573,-2.3575,-2.3562,-2.3625,-2.3628,-2.3681,-2.3607,-2.3608,-2.3609,0,-2.3135,-2.3173,-2.3244,-2.3285,-2.3303,-2.3337,-2.338,-2.3415,-2.3453,-2.3465,-2.3496,-2.3505,-2.3552,-2.3533,-2.3597,-2.3571,-2.3594,-2.3609,-2.3611,-2.3616,-2.3594,-2.3631,-2.3699,-2.3706,-2.3622,-2.3621,-2.362,0,-2.3166,-2.3235,-2.3286,-2.3305,-2.3355,-2.3379,-2.3401,-2.3437,-2.3464,-2.3502,-2.3519,-2.3562,-2.3586,-2.3619,-2.364,-2.3624,-2.3703,-2.3686,-2.3714,-2.3714,-2.373,-2.3728,-2.3802,-2.3746,-2.3746,-2.3746,-2.3745,0,-2.3224,-2.3268,-2.33,-2.3332,-2.3381,-2.3401,-2.3449,-2.3471,-2.3503,-2.3539,-2.3549,-2.3583,-2.3609,-2.3646,-2.3663,-2.3714,-2.3725,-2.3736,-2.374,-2.3734,-2.3733,-2.3749,-2.3745,-2.3748,-2.3747,-2.3747,-2.3747,0,-2.3266,-2.329,-2.3347,-2.3389,-2.3401,-2.3435,-2.3472,-2.3503,-2.3523,-2.3569,-2.3581,-2.3613,-2.3657,-2.3681,-2.3738,-2.3749,-2.3806,-2.3808,-2.3793,-2.3794,-2.3821,-2.3818,-2.3906,-2.3919,-2.3856,-2.3856,-2.3857,0,-2.3302,-2.3335,-2.3381,-2.3406,-2.3428,-2.3468,-2.3495,-2.3516,-2.3544,-2.3589,-2.3615,-2.366,-2.3698,-2.3769,-2.3797,-2.384,-2.3843,-2.3871,-2.385,-2.3843,-2.3843,-2.384,-2.3843,-2.3875,-2.3875,-2.3876,-2.3876,0,-2.3362,-2.3372,-2.341,-2.3452,-2.3484,-2.3518,-2.3552,-2.3572,-2.3599,-2.363,-2.3676,-2.3704,-2.3762,-2.3807,-2.3852,-2.3875,-2.388,-2.3883,-2.3892,-2.3886,-2.3876,-2.3881,-2.3802,-2.388,-2.388,-2.388,-2.3879,-2.3879,-2.3401,-2.3431,-2.3468,-2.351,-2.3538,-2.3569,-2.3601,-2.3625,-2.3663,-2.3711,-2.3722,-2.377,-2.3807,-2.3868,-2.3893,-2.3931,-2.3926,-2.3938,-2.3942,-2.3944,-2.3945,-2.387,-2.394,-2.394,-2.3939,-2.3939,-2.3939,0,-2.3461,-2.3485,-2.3524,-2.3571,-2.3604,-2.3606,-2.3644,-2.3671,-2.3713,-2.3748,-2.3784,-2.3837,-2.388,-2.3912,-2.3957,-2.3981,-2.3985,-2.3992,-2.399,-2.3995,-2.3948,-2.3935,-2.3988,-2.3988,-2.3988,-2.3988,-2.3988,-2.3988,-2.3496,-2.3546,-2.3561,-2.3625,-2.365,-2.3696,-2.3718,-2.3747,-2.3774,-2.3832,-2.3868,-2.3889,-2.3922,-2.3969,-2.401,-2.4018,-2.4034,-2.4041,-2.4049,-2.4004,-2.3999,-2.3994,-2.3982,-2.4044,-2.4044,-2.4094,-2.4094,-2.4094]},{"header":{"parameterUnit":"m.s-1","parameterCategory":1,"la1":30.2991,"la2":30.254,"lo1":-89.0895,"lo2":-89.0444,"dy":0.0017,"dx":0.0017,"nx":28,"ny":28,"refTime":"2024-05-20T21:00:00:Z","depth":0,"parameterNumber":3,"parameterNumberName":"V-component_of_WINDS"},"data":[0,0,0,0,0,0,0,0,0,0,0,0,0,0,0,0,0,0,0,0,0,0,0,0,0,0,0,0,0,0,0,0,0,0,0,0,0,0,0,0,0,0,0,0,0,0,0,0,0,0,0,0,0,0,0,0,0,0,2.9052,2.9052,0,2.9049,2.9049,2.9049,2.9007,2.9006,2.9004,2.9003,2.9001,2.9001,2.9002,0,0,0,0,0,0,0,0,0,0,0,0,0,2.902,2.9021,2.9052,2.9052,2.9052,2.9049,2.9049,2.9049,2.9007,2.9006,2.9004,2.9003,2.9,2.9001,2.9002,0,0,0,0,0,0,0,0,0,0,0,0,0,2.9028,2.9021,2.9052,2.9031,2.9029,2.9049,2.9049,2.9049,2.9007,2.9005,2.9004,2.9002,2.9,2.9001,2.9003,2.9044,0,0,2.9007,2.9008,0,0,0,0,0,0,0,0,2.9027,2.9029,2.9034,2.9032,2.903,2.9027,2.9037,2.9048,2.9008,2.9015,2.9003,2.9002,2.9011,2.9011,2.9014,2.9044,2.9044,2.9007,2.9008,2.9009,2.9009,0,0,0,0,0,0,0,2.9027,2.9029,2.9051,2.9034,2.9032,2.9021,2.902,2.9039,2.9022,2.9014,2.9011,2.9012,2.9009,2.9013,2.9014,2.9044,2.9007,2.9008,2.9009,2.901,2.9107,2.9109,0,0,0,0,0,0,2.9029,2.9029,2.9051,2.9051,2.9025,2.9023,2.9022,2.9029,2.9022,2.9019,2.9013,2.901,2.9011,2.9012,2.9013,2.9061,2.9009,2.901,2.9011,2.9105,2.9108,2.9109,0,0,0,0,0,0,2.9029,2.9032,2.9051,2.9039,2.9041,2.9025,2.9034,2.903,2.9034,2.9021,2.9017,2.902,2.901,2.9011,2.9037,2.906,2.901,2.9012,2.9103,2.9106,2.9108,2.9157,0,0,0,0,0,0,2.9028,2.9032,2.9047,2.904,2.9041,2.9075,2.9035,2.9031,2.9036,2.9032,2.9026,2.9024,2.9009,2.9035,2.9038,2.9061,2.9013,2.9101,2.9105,2.9108,2.9153,2.9161,2.9168,0,0,0,0,0,2.9027,2.9061,2.9048,2.9051,2.9061,2.9076,2.9077,2.9059,2.9038,2.9054,2.9046,2.9024,2.9057,2.9038,2.9041,2.9065,2.91,2.9104,2.9107,2.915,2.9159,2.9167,0,0,0,0,0,0,2.9072,2.906,2.9045,2.9078,2.9078,2.9069,2.9088,2.907,2.9076,2.9072,2.905,2.9049,2.9077,2.9074,2.9052,2.9105,2.9075,2.908,2.9106,2.9115,2.9122,2.9122,2.9014,0,0,0,0,0,2.9085,2.9099,2.9088,2.9118,2.9119,2.9103,2.9109,2.9096,2.9095,2.9095,2.9089,2.9089,2.91,2.9107,2.9116,2.9153,2.9151,2.9171,2.9178,2.9184,2.9188,2.9207,2.9216,2.9122,2.9122,2.9122,0,0,2.9114,2.9109,2.9119,2.9126,2.9125,2.914,2.9104,2.9121,2.9131,2.9098,2.9121,2.9117,2.9116,2.9147,2.916,2.9145,2.9214,2.9189,2.9194,2.9195,2.9212,2.9221,2.9229,2.9125,2.9125,2.9124,0,0,2.9173,2.9171,2.9195,2.9195,2.9193,2.9183,2.9189,2.9182,2.9178,2.9201,2.9176,2.9189,2.9207,2.9208,2.921,2.927,2.925,2.9274,2.9311,2.933,2.9337,2.9343,2.9364,2.9372,2.9278,2.9278,2.9278,0,2.9208,2.9229,2.921,2.9228,2.9232,2.9203,2.9228,2.9228,2.923,2.9234,2.9216,2.9239,2.9237,2.9267,2.9282,2.9285,2.9291,2.9274,2.9337,2.9344,2.9349,2.9369,2.9377,2.9281,2.9281,2.928,2.928,0,2.9272,2.9287,2.9307,2.931,2.9316,2.9338,2.9322,2.9331,2.9317,2.9308,2.9332,2.9328,2.9336,2.9342,2.9329,2.9371,2.9361,2.9341,2.931,2.9361,2.9379,2.9387,2.9285,2.9284,2.9283,2.9282,0,0,2.9358,2.935,2.9358,2.9359,2.9355,2.9367,2.9387,2.9395,2.9403,2.9405,2.9421,2.9438,2.942,2.9423,2.9409,2.9426,2.9473,2.9403,2.9403,2.9416,2.9519,2.9534,2.9543,2.946,2.9461,2.9462,2.9519,0,2.9415,2.9449,2.9433,2.9469,2.9482,2.9455,2.9473,2.9473,2.9466,2.9476,2.9468,2.948,2.9455,2.9457,2.9472,2.9464,2.9493,2.946,2.9475,2.9475,2.9475,2.9552,2.9568,2.9621,2.9526,2.9527,2.9528,0,2.9485,2.9491,2.9528,2.9522,2.9527,2.9544,2.9549,2.956,2.9559,2.9553,2.9557,2.9539,2.9559,2.9529,2.9556,2.9533,2.9539,2.9536,2.9537,2.9537,2.9504,2.9554,2.9638,2.9646,2.9539,2.9538,2.9537,0,2.9544,2.9561,2.9585,2.9587,2.9581,2.9593,2.9591,2.9589,2.9594,2.9599,2.9603,2.961,2.9614,2.962,2.9605,2.9585,2.9634,2.9603,2.9629,2.963,2.964,2.964,2.9725,2.9645,2.9645,2.9644,2.9644,0,2.9608,2.9632,2.9611,2.9626,2.9653,2.9634,2.966,2.9655,2.9653,2.9667,2.9644,2.9657,2.9637,2.9648,2.9637,2.9661,2.9663,2.9658,2.9655,2.966,2.966,2.9662,2.9658,2.9647,2.9646,2.9646,2.9645,0,2.9678,2.9665,2.969,2.9682,2.9681,2.9701,2.9694,2.9708,2.9699,2.9717,2.972,2.9706,2.9719,2.9704,2.9716,2.9708,2.974,2.9731,2.974,2.9737,2.9764,2.9762,2.9854,2.9865,2.9778,2.9778,2.9779,0,2.9719,2.9737,2.9732,2.9739,2.9739,2.9751,2.9757,2.9739,2.9746,2.9747,2.9761,2.9771,2.9778,2.9799,2.979,2.9798,2.9789,2.9821,2.979,2.9795,2.9789,2.9788,2.979,2.9827,2.9828,2.9829,2.983,0,2.9795,2.9788,2.9797,2.9804,2.9811,2.9816,2.9819,2.9827,2.9808,2.9817,2.9829,2.9835,2.9846,2.9857,2.9863,2.986,2.9842,2.984,2.9846,2.9851,2.9856,2.9853,2.9756,2.9837,2.9837,2.9836,2.9836,2.9835,2.9851,2.9866,2.9864,2.9875,2.9876,2.9879,2.9891,2.9885,2.9895,2.9902,2.9891,2.9907,2.9906,2.9912,2.9912,2.9924,2.991,2.9919,2.9922,2.9924,2.9928,2.9854,2.9925,2.9924,2.9924,2.9924,2.9924,0,2.9925,2.9923,2.9933,2.9938,2.9947,2.9929,2.9932,2.994,2.9954,2.9954,2.9962,2.9976,2.9986,2.9979,2.9987,2.9998,2.999,3.0001,2.9999,2.9999,2.994,2.9933,3.0007,3.0007,3.0007,3.0007,3.0007,3.0007,2.9964,2.9988,2.9981,3.0004,3.0002,3.0016,3.0019,3.0022,3.0023,3.004,3.0048,3.0043,3.004,3.0048,3.0057,3.0054,3.0058,3.0072,3.0067,3.0011,3.0003,2.9995,2.9989,3.0074,3.0074,3.0125,3.0126,3.0126]}]]